| time (UTC) | temp F | wind direction | speed MPH | gust MPH | rain 1hr in | rain 24hr in | rain mn in | humidity % | barometer mb |
| 20260505124819 | 59 | 20 | 4.0 | 12.0 | 0.00 | 0.00 | 0.00 | 59 | 1011.6 |
| 20260505124542 | 59 | 198 | 3.0 | 11.0 | 0.00 | 0.00 | 0.00 | 59 | 1011.6 |
| 20260505123814 | 59 | 110 | 4.0 | 11.0 | 0.00 | 0.00 | 0.00 | 60 | 1011.7 |
| 20260505123316 | 59 | 60 | 4.0 | 14.0 | 0.00 | 0.00 | 0.00 | 59 | 1011.7 |
| 20260505123050 | 59 | 58 | 3.0 | 14.0 | 0.00 | 0.00 | 0.00 | 59 | 1011.8 |
| 20260505122317 | 59 | 256 | 2.0 | 6.0 | 0.00 | 0.00 | 0.00 | 59 | 1011.9 |
| 20260505122037 | 59 | 148 | 2.0 | 9.0 | 0.00 | 0.00 | 0.00 | 60 | 1011.8 |
| 20260505121315 | 59 | 257 | 3.0 | 9.0 | 0.00 | 0.00 | 0.00 | 59 | 1011.9 |
| 20260505120815 | 59 | 93 | 3.0 | 10.0 | 0.00 | 0.00 | 0.00 | 60 | 1011.7 |
| 20260505120316 | 59 | 328 | 3.0 | 10.0 | 0.00 | 0.00 | 0.00 | 59 | 1011.7 |
| 20260505120039 | 59 | 92 | 2.0 | 7.0 | 0.00 | 0.00 | 0.00 | 59 | 1011.8 |
| 20260505115314 | 59 | 353 | 3.0 | 9.0 | 0.00 | 0.00 | 0.00 | 59 | 1011.8 |
| 20260505115030 | 59 | 117 | 3.0 | 9.0 | 0.00 | 0.00 | 0.00 | 60 | 1011.8 |
| 20260505114314 | 59 | 255 | 2.0 | 9.0 | 0.00 | 0.00 | 0.00 | 59 | 1011.8 |
| 20260505114308 | 59 | 70 | 2.0 | 7.0 | 0.00 | 0.00 | 0.00 | 60 | 1011.8 |
| 20260505113315 | 59 | 130 | 3.0 | 8.0 | 0.00 | 0.00 | 0.00 | 60 | 1011.8 |
| 20260505112814 | 58 | 129 | 3.0 | 9.0 | 0.00 | 0.00 | 0.00 | 60 | 1012.0 |
| 20260505112314 | 58 | 92 | 3.0 | 10.0 | 0.00 | 0.00 | 0.00 | 60 | 1012.0 |
| 20260505111812 | 58 | 94 | 3.0 | 10.0 | 0.00 | 0.00 | 0.00 | 60 | 1012.1 |
| 20260505111302 | 58 | 138 | 2.0 | 7.0 | 0.00 | 0.00 | 0.00 | 60 | 1012.1 |
| 20260505110756 | 58 | 22 | 2.0 | 10.0 | 0.00 | 0.00 | 0.00 | 60 | 1012.2 |
| 20260505110536 | 58 | 138 | 3.0 | 10.0 | 0.00 | 0.00 | 0.00 | 59 | 1012.1 |
| 20260505102202 | 57 | 84 | 4.0 | 12.0 | 0.00 | 0.00 | 0.00 | 59 | 1012.4 |
| 20260505101658 | 58 | 117 | 3.0 | 12.0 | 0.00 | 0.00 | 0.00 | 59 | 1012.5 |
| 20260505101152 | 58 | 51 | 2.0 | 10.0 | 0.00 | 0.00 | 0.00 | 59 | 1012.5 |
| 20260505100645 | 57 | 77 | 2.0 | 10.0 | 0.00 | 0.00 | 0.00 | 59 | 1012.5 |
| 20260505100143 | 57 | 264 | 2.0 | 11.0 | 0.00 | 0.00 | 0.00 | 58 | 1012.5 |
| 20260505095634 | 57 | 26 | 3.0 | 11.0 | 0.00 | 0.00 | 0.00 | 58 | 1012.5 |
| 20260505095351 | 56 | 103 | 2.0 | 9.0 | 0.00 | 0.00 | 0.00 | 58 | 1012.4 |
| 20260505094621 | 56 | 28 | 3.0 | 12.0 | 0.00 | 0.00 | 0.00 | 58 | 1012.6 |
| 20260505094402 | 56 | 113 | 3.0 | 12.0 | 0.00 | 0.00 | 0.00 | 58 | 1012.5 |
| 20260505093832 | 57 | 110 | 3.0 | 9.0 | 0.00 | 0.00 | 0.00 | 56 | 1012.4 |
| 20260505093104 | 56 | 116 | 3.0 | 9.0 | 0.00 | 0.00 | 0.00 | 54 | 1012.5 |
| 20260505092558 | 56 | 134 | 3.0 | 8.0 | 0.00 | 0.00 | 0.00 | 55 | 1012.4 |
| 20260505092051 | 56 | 130 | 3.0 | 8.0 | 0.00 | 0.00 | 0.00 | 56 | 1012.5 |
| 20260505091544 | 56 | 44 | 2.0 | 9.0 | 0.00 | 0.00 | 0.00 | 56 | 1012.5 |
| 20260505091038 | 56 | 346 | 2.0 | 10.0 | 0.00 | 0.00 | 0.00 | 57 | 1012.3 |
| 20260505091026 | 57 | 30 | 3.0 | 10.0 | 0.00 | 0.00 | 0.00 | 57 | 1012.3 |
| 20260505090312 | 56 | 12 | 3.0 | 10.0 | 0.00 | 0.00 | 0.00 | 56 | 1012.2 |
| 20260505085537 | 56 | 113 | 3.0 | 11.0 | 0.00 | 0.00 | 0.00 | 58 | 1012.3 |
| 20260505085035 | 56 | 65 | 3.0 | 12.0 | 0.00 | 0.00 | 0.00 | 57 | 1012.3 |
| 20260505084533 | 56 | 276 | 3.0 | 12.0 | 0.00 | 0.00 | 0.00 | 57 | 1012.3 |
| 20260505084031 | 56 | 31 | 3.0 | 10.0 | 0.00 | 0.00 | 0.00 | 55 | 1012.3 |
| 20260505083529 | 55 | 110 | 3.0 | 13.0 | 0.00 | 0.00 | 0.00 | 54 | 1012.5 |
| 20260505083028 | 55 | 58 | 3.0 | 13.0 | 0.00 | 0.00 | 0.00 | 53 | 1012.4 |
| 20260505082530 | 55 | 153 | 3.0 | 10.0 | 0.00 | 0.00 | 0.00 | 53 | 1012.5 |
| 20260505082253 | 55 | 39 | 3.0 | 13.0 | 0.00 | 0.00 | 0.00 | 53 | 1012.5 |
| 20260505081529 | 56 | 99 | 3.0 | 13.0 | 0.00 | 0.00 | 0.00 | 54 | 1012.5 |
| 20260505081030 | 55 | 51 | 2.0 | 9.0 | 0.00 | 0.00 | 0.00 | 51 | 1012.6 |
| 20260505080529 | 55 | 126 | 2.0 | 8.0 | 0.00 | 0.00 | 0.00 | 49 | 1012.7 |
| 20260505080029 | 55 | 72 | 2.0 | 6.0 | 0.00 | 0.00 | 0.00 | 48 | 1012.7 |
| 20260505075531 | 55 | 191 | 2.0 | 7.0 | 0.00 | 0.00 | 0.00 | 47 | 1012.7 |
| 20260505075029 | 55 | 234 | 2.0 | 7.0 | 0.00 | 0.00 | 0.00 | 47 | 1012.7 |
| 20260505074534 | 55 | 39 | 2.0 | 6.0 | 0.00 | 0.00 | 0.00 | 49 | 1012.8 |
| 20260505074027 | 55 | 238 | 1.0 | 4.0 | 0.00 | 0.00 | 0.00 | 47 | 1012.8 |
| 20260505073531 | 55 | 48 | 2.0 | 8.0 | 0.00 | 0.00 | 0.00 | 42 | 1012.8 |
| 20260505073018 | 55 | 281 | 2.0 | 8.0 | 0.00 | 0.00 | 0.00 | 42 | 1012.8 |
| 20260505072511 | 54 | 148 | 1.0 | 6.0 | 0.00 | 0.00 | 0.00 | 22 | 1012.8 |
| 20260505072001 | 53 | 32 | 1.0 | 5.0 | 0.00 | 0.00 | 0.00 | 10 | 1012.8 |
| 20260505071457 | 52 | 42 | 1.0 | 7.0 | 0.00 | 0.00 | 0.00 | 12 | 1012.9 |
| 20260505070948 | 52 | 134 | 2.0 | 7.0 | 0.00 | 0.00 | 0.00 | 17 | 1013.0 |
| 20260505070443 | 52 | 24 | 1.0 | 6.0 | 0.00 | 0.00 | 0.00 | 19 | 1013.1 |
| 20260505065944 | 52 | 91 | 1.0 | 7.0 | 0.00 | 0.00 | 0.00 | 20 | 1013.1 |
| 20260505065440 | 52 | 17 | 1.0 | 7.0 | 0.00 | 0.00 | 0.00 | 21 | 1013.1 |
| 20260505064941 | 52 | 15 | 1.0 | 6.0 | 0.00 | 0.00 | 0.00 | 18 | 1013.1 |
| 20260505064440 | 51 | 178 | 0.0 | 3.0 | 0.00 | 0.00 | 0.00 | 9 | 1013.1 |
| 20260505063938 | 51 | 116 | 1.0 | 6.0 | 0.00 | 0.00 | 0.00 | 6 | 1013.1 |
| 20260505063440 | 51 | 352 | 0.0 | 6.0 | 0.00 | 0.00 | 0.00 | 3 | 1013.1 |
| 20260505062938 | 51 | 101 | 0.0 | 4.0 | 0.00 | 0.00 | 0.00 | 1 | 1013.0 |
| 20260505062440 | 51 | 96 | 0.0 | 4.0 | 0.00 | 0.00 | 0.00 | 1 | 1013.1 |
| 20260505061939 | 51 | 60 | 1.0 | 4.0 | 0.00 | 0.00 | 0.00 | 1 | 1013.0 |
| 20260505061438 | 51 | 243 | 1.0 | 4.0 | 0.00 | 0.00 | 0.00 | 1 | 1013.0 |
| 20260505060939 | 51 | 98 | 0.0 | 3.0 | 0.00 | 0.00 | 0.00 | 1 | 1013.0 |
| 20260505060441 | 51 | 269 | 1.0 | 5.0 | 0.00 | 0.00 | 0.00 | 1 | 1013.0 |
| 20260505055939 | 51 | 265 | 1.0 | 5.0 | 0.00 | 0.00 | 0.00 | 1 | 1013.0 |
| 20260505055436 | 51 | 6 | 1.0 | 6.0 | 0.00 | 0.00 | 0.00 | 1 | 1012.9 |
| 20260505054436 | 51 | 27 | 1.0 | 4.0 | 0.00 | 0.00 | 0.00 | 1 | 1012.9 |
| 20260505053927 | 51 | 53 | 1.0 | 4.0 | 0.00 | 0.00 | 0.00 | 1 | 1012.9 |
| 20260505053422 | 51 | 115 | 1.0 | 6.0 | 0.00 | 0.00 | 0.00 | 1 | 1012.8 |
| 20260505053138 | 51 | 262 | 0.0 | 6.0 | 0.00 | 0.00 | 0.00 | 1 | 1012.8 |
| 20260505052418 | 51 | 27 | 0.0 | 2.0 | 0.00 | 0.00 | 0.00 | 1 | 1012.8 |
| 20260505051914 | 51 | 29 | 1.0 | 4.0 | 0.00 | 0.00 | 0.00 | 1 | 1012.8 |
| 20260505051415 | 51 | 54 | 1.0 | 7.0 | 0.00 | 0.00 | 0.00 | 1 | 1012.7 |
| 20260505050917 | 51 | 341 | 2.0 | 7.0 | 0.00 | 0.00 | 0.00 | 1 | 1012.7 |
| 20260505050413 | 51 | 94 | 1.0 | 7.0 | 0.00 | 0.00 | 0.00 | 1 | 1012.6 |
| 20260505041413 | 50 | 41 | 1.0 | 4.0 | 0.00 | 0.00 | 0.00 | 1 | 1012.7 |
| 20260505040913 | 50 | 72 | 1.0 | 4.0 | 0.00 | 0.00 | 0.00 | 1 | 1012.7 |
| 20260505040414 | 50 | 87 | 1.0 | 6.0 | 0.00 | 0.00 | 0.00 | 1 | 1012.8 |
| 20260505035907 | 51 | 36 | 1.0 | 6.0 | 0.00 | 0.00 | 0.00 | 1 | 1012.7 |
| 20260505035411 | 50 | 134 | 1.0 | 5.0 | 0.00 | 0.00 | 0.00 | 1 | 1012.8 |
| 20260505034908 | 50 | 65 | 1.0 | 4.0 | 0.00 | 0.00 | 0.00 | 1 | 1012.8 |
| 20260505034409 | 51 | 73 | 1.0 | 5.0 | 0.00 | 0.00 | 0.00 | 1 | 1012.8 |
| 20260505034129 | 51 | 24 | 1.0 | 5.0 | 0.00 | 0.00 | 0.00 | 1 | 1012.9 |
| 20260505033410 | 51 | 85 | 1.0 | 4.0 | 0.00 | 0.00 | 0.00 | 1 | 1012.8 |
| 20260505032909 | 51 | 349 | 1.0 | 4.0 | 0.00 | 0.00 | 0.00 | 1 | 1012.7 |
| 20260505032407 | 51 | 116 | 1.0 | 5.0 | 0.00 | 0.00 | 0.00 | 1 | 1012.6 |
| 20260505032139 | 51 | 23 | 2.0 | 6.0 | 0.00 | 0.00 | 0.00 | 1 | 1012.7 |
| 20260505031406 | 51 | 75 | 1.0 | 6.0 | 0.00 | 0.00 | 0.00 | 1 | 1012.7 |
| 20260505030858 | 51 | 39 | 1.0 | 6.0 | 0.00 | 0.00 | 0.00 | 1 | 1012.8 |
| 20260505030359 | 51 | 52 | 1.0 | 6.0 | 0.00 | 0.00 | 0.00 | 1 | 1012.7 |
| 20260505025902 | 51 | 270 | 2.0 | 5.0 | 0.00 | 0.00 | 0.00 | 1 | 1012.7 |
| 20260505025632 | 51 | 72 | 2.0 | 5.0 | 0.00 | 0.00 | 0.00 | 1 | 1012.7 |
| 20260505024859 | 51 | 41 | 2.0 | 6.0 | 0.00 | 0.00 | 0.00 | 1 | 1012.7 |
| 20260505024359 | 51 | 69 | 1.0 | 9.0 | 0.00 | 0.00 | 0.00 | 1 | 1012.7 |
| 20260505023901 | 51 | 22 | 2.0 | 9.0 | 0.00 | 0.00 | 0.00 | 1 | 1012.8 |
| 20260505023357 | 51 | 15 | 2.0 | 7.0 | 0.00 | 0.00 | 0.00 | 1 | 1012.9 |
| 20260505022857 | 51 | 46 | 2.0 | 7.0 | 0.00 | 0.00 | 0.00 | 1 | 1013.0 |
| 20260505022612 | 51 | 103 | 1.0 | 7.0 | 0.00 | 0.00 | 0.00 | 1 | 1013.1 |
| 20260505021901 | 51 | 104 | 1.0 | 7.0 | 0.00 | 0.00 | 0.00 | 1 | 1013.1 |
| 20260505021354 | 51 | 50 | 1.0 | 7.0 | 0.00 | 0.00 | 0.00 | 1 | 1013.1 |
| 20260505020851 | 51 | 64 | 1.0 | 7.0 | 0.00 | 0.00 | 0.00 | 1 | 1013.1 |
| 20260505020352 | 51 | 106 | 2.0 | 7.0 | 0.00 | 0.00 | 0.00 | 1 | 1013.1 |
| 20260505015845 | 51 | 57 | 2.0 | 6.0 | 0.00 | 0.00 | 0.00 | 1 | 1013.1 |
| 20260505015339 | 51 | 60 | 2.0 | 6.0 | 0.00 | 0.00 | 0.00 | 1 | 1013.1 |
| 20260505015103 | 51 | 39 | 1.0 | 6.0 | 0.00 | 0.00 | 0.00 | 1 | 1013.1 |
| 20260505014557 | 51 | 97 | 1.0 | 6.0 | 0.00 | 0.00 | 0.00 | 1 | 1013.1 |
| 20260505013822 | 51 | 136 | 2.0 | 7.0 | 0.00 | 0.00 | 0.00 | 1 | 1013.1 |
| 20260505013543 | 51 | 89 | 2.0 | 8.0 | 0.00 | 0.00 | 0.00 | 1 | 1013.2 |
| 20260505012811 | 51 | 65 | 2.0 | 9.0 | 0.00 | 0.00 | 0.00 | 1 | 1013.2 |
| 20260505012306 | 51 | 118 | 2.0 | 9.0 | 0.00 | 0.00 | 0.00 | 1 | 1013.3 |
| 20260505011808 | 51 | 161 | 1.0 | 6.0 | 0.00 | 0.00 | 0.00 | 1 | 1013.3 |
| 20260505011303 | 51 | 327 | 1.0 | 6.0 | 0.00 | 0.00 | 0.00 | 1 | 1013.4 |
| 20260505010806 | 51 | 33 | 1.0 | 5.0 | 0.00 | 0.00 | 0.00 | 1 | 1013.4 |
| 20260505010304 | 51 | 87 | 1.0 | 5.0 | 0.00 | 0.00 | 0.00 | 1 | 1013.5 |
| 20260505005803 | 51 | 55 | 1.0 | 7.0 | 0.00 | 0.00 | 0.00 | 1 | 1013.5 |
| 20260505005303 | 51 | 322 | 1.0 | 7.0 | 0.00 | 0.00 | 0.00 | 1 | 1013.5 |
| 20260505005028 | 51 | 38 | 0.0 | 5.0 | 0.00 | 0.00 | 0.00 | 1 | 1013.5 |
| 20260505004515 | 51 | 156 | 1.0 | 6.0 | 0.00 | 0.00 | 0.00 | 1 | 1013.6 |
| 20260505003758 | 51 | 44 | 1.0 | 6.0 | 0.00 | 0.00 | 0.00 | 1 | 1013.6 |
| 20260505003311 | 51 | 18 | 1.0 | 4.0 | 0.00 | 0.00 | 0.00 | 1 | 1013.6 |
| 20260505003302 | 51 | 105 | 1.0 | 6.0 | 0.00 | 0.00 | 0.00 | 1 | 1013.6 |
| 20260505003042 | 51 | 119 | 1.0 | 4.0 | 0.00 | 0.00 | 0.00 | 1 | 1013.7 |
| 20260505001758 | 51 | 255 | 1.0 | 6.0 | 0.00 | 0.00 | 0.00 | 1 | 1013.6 |
| 20260505001513 | 51 | 134 | 1.0 | 6.0 | 0.00 | 0.00 | 0.00 | 1 | 1013.7 |
| 20260505000804 | 52 | 27 | 1.0 | 4.0 | 0.00 | 0.00 | 0.00 | 1 | 1013.8 |
| 20260505000754 | 52 | 69 | 1.0 | 4.0 | 0.00 | 0.00 | 0.00 | 1 | 1013.8 |
| 20260504235755 | 52 | 79 | 1.0 | 4.0 | 0.00 | 0.00 | 0.00 | 1 | 1013.9 |
| 20260504235247 | 51 | 42 | 2.0 | 7.0 | 0.00 | 0.00 | 0.00 | 1 | 1013.9 |
| 20260504234744 | 51 | 91 | 2.0 | 8.0 | 0.00 | 0.00 | 0.00 | 1 | 1013.9 |
| 20260504234238 | 52 | 67 | 2.0 | 7.0 | 0.00 | 0.00 | 0.00 | 1 | 1014.0 |
| 20260504233731 | 52 | 103 | 1.0 | 6.0 | 0.00 | 0.00 | 0.00 | 1 | 1014.0 |
| 20260504233225 | 52 | 115 | 0.0 | 2.0 | 0.00 | 0.00 | 0.00 | 1 | 1014.0 |
| 20260504232945 | 52 | 321 | 0.0 | 3.0 | 0.00 | 0.00 | 0.00 | 1 | 1014.1 |
| 20260504232212 | 52 | 30 | 1.0 | 3.0 | 0.00 | 0.00 | 0.00 | 1 | 1014.1 |
| 20260504231933 | 52 | 103 | 1.0 | 5.0 | 0.00 | 0.00 | 0.00 | 1 | 1014.1 |
| 20260504231201 | 52 | 110 | 1.0 | 5.0 | 0.00 | 0.00 | 0.00 | 1 | 1014.2 |
| 20260504230709 | 52 | 261 | 1.0 | 5.0 | 0.00 | 0.00 | 0.00 | 1 | 1014.1 |
| 20260504230147 | 52 | 60 | 1.0 | 5.0 | 0.00 | 0.00 | 0.00 | 1 | 1014.2 |
| 20260504225646 | 52 | 37 | 1.0 | 5.0 | 0.00 | 0.00 | 0.00 | 1 | 1014.1 |
| 20260504225136 | 52 | 56 | 1.0 | 5.0 | 0.00 | 0.00 | 0.00 | 1 | 1014.2 |
| 20260504224630 | 52 | 88 | 1.0 | 5.0 | 0.00 | 0.00 | 0.00 | 1 | 1014.3 |
| 20260504224124 | 53 | 70 | 1.0 | 4.0 | 0.00 | 0.00 | 0.00 | 1 | 1014.2 |
| 20260504223617 | 53 | 192 | 1.0 | 5.0 | 0.00 | 0.00 | 0.00 | 1 | 1014.2 |
| 20260504223112 | 53 | 80 | 1.0 | 10.0 | 0.00 | 0.00 | 0.00 | 1 | 1014.2 |
| 20260504222606 | 53 | 130 | 2.0 | 10.0 | 0.00 | 0.00 | 0.00 | 1 | 1014.3 |
| 20260504222320 | 53 | 220 | 2.0 | 8.0 | 0.00 | 0.00 | 0.00 | 1 | 1014.3 |
| 20260504222040 | 53 | 116 | 3.0 | 8.0 | 0.00 | 0.00 | 0.00 | 1 | 1014.4 |
| 20260504221049 | 53 | 73 | 2.0 | 8.0 | 0.00 | 0.00 | 0.00 | 1 | 1014.4 |
| 20260504220806 | 53 | 139 | 1.0 | 5.0 | 0.00 | 0.00 | 0.00 | 1 | 1014.4 |
| 20260504220052 | 53 | 345 | 1.0 | 8.0 | 0.00 | 0.00 | 0.00 | 1 | 1014.5 |
| 20260504215531 | 53 | 181 | 2.0 | 8.0 | 0.00 | 0.00 | 0.00 | 1 | 1014.6 |
| 20260504215025 | 53 | 89 | 2.0 | 6.0 | 0.00 | 0.00 | 0.00 | 1 | 1014.6 |
| 20260504214521 | 53 | 15 | 1.0 | 8.0 | 0.00 | 0.00 | 0.00 | 1 | 1014.5 |
| 20260504214015 | 54 | 58 | 2.0 | 10.0 | 0.00 | 0.00 | 0.00 | 1 | 1014.5 |
| 20260504213503 | 54 | 108 | 2.0 | 10.0 | 0.00 | 0.00 | 0.00 | 1 | 1014.5 |
| 20260504213224 | 54 | 86 | 1.0 | 7.0 | 0.00 | 0.00 | 0.00 | 1 | 1014.6 |
| 20260504213206 | 54 | 44 | 0.0 | 3.0 | 0.00 | 0.00 | 0.00 | 1 | 1014.5 |
| 20260504211944 | 54 | 22 | 0.0 | 2.0 | 0.00 | 0.00 | 0.00 | 1 | 1014.5 |
| 20260504211934 | 54 | 14 | 0.0 | 2.0 | 0.00 | 0.00 | 0.00 | 1 | 1014.6 |
| 20260504210933 | 54 | 217 | 0.0 | 2.0 | 0.00 | 0.00 | 0.00 | 1 | 1014.5 |
| 20260504210650 | 54 | 77 | 0.0 | 2.0 | 0.00 | 0.00 | 0.00 | 1 | 1014.5 |
| 20260504210145 | 54 | 101 | 0.0 | 2.0 | 0.00 | 0.00 | 0.00 | 1 | 1014.4 |
| 20260504205636 | 54 | 13 | 1.0 | 3.0 | 0.00 | 0.00 | 0.00 | 1 | 1014.4 |
| 20260504205141 | 54 | 107 | 0.0 | 3.0 | 0.00 | 0.00 | 0.00 | 1 | 1014.4 |
| 20260504204402 | 55 | 213 | 0.0 | 2.0 | 0.00 | 0.00 | 0.00 | 1 | 1014.5 |
| 20260504203856 | 55 | 125 | 1.0 | 3.0 | 0.00 | 0.00 | 0.00 | 1 | 1014.5 |
| 20260504203350 | 55 | 22 | 0.0 | 4.0 | 0.00 | 0.00 | 0.00 | 1 | 1014.5 |
| 20260504203114 | 55 | 48 | 0.0 | 4.0 | 0.00 | 0.00 | 0.00 | 1 | 1014.5 |
| 20260504202337 | 55 | 50 | 1.0 | 3.0 | 0.00 | 0.00 | 0.00 | 1 | 1014.4 |
| 20260504202058 | 55 | 56 | 0.0 | 2.0 | 0.00 | 0.00 | 0.00 | 1 | 1014.4 |
| 20260504201328 | 55 | 316 | 0.0 | 4.0 | 0.00 | 0.00 | 0.00 | 1 | 1014.3 |
| 20260504200821 | 55 | 150 | 0.0 | 4.0 | 0.00 | 0.00 | 0.00 | 1 | 1014.3 |
| 20260504200316 | 55 | 281 | 0.0 | 4.0 | 0.00 | 0.00 | 0.00 | 1 | 1014.3 |
| 20260504195809 | 55 | 71 | 0.0 | 3.0 | 0.00 | 0.00 | 0.00 | 1 | 1014.2 |
| 20260504195304 | 55 | 68 | 0.0 | 5.0 | 0.00 | 0.00 | 0.00 | 1 | 1014.2 |
| 20260504195022 | 56 | 154 | 0.0 | 5.0 | 0.00 | 0.00 | 0.00 | 1 | 1014.1 |
| 20260504194250 | 56 | 67 | 0.0 | 4.0 | 0.00 | 0.00 | 0.00 | 1 | 1014.1 |
| 20260504194014 | 56 | 54 | 1.0 | 3.0 | 0.00 | 0.00 | 0.00 | 1 | 1014.0 |
| 20260504193240 | 56 | 359 | 1.0 | 4.0 | 0.00 | 0.00 | 0.00 | 1 | 1014.0 |
| 20260504193001 | 56 | 308 | 1.0 | 4.0 | 0.00 | 0.00 | 0.00 | 1 | 1014.0 |
| 20260504192227 | 56 | 203 | 1.0 | 4.0 | 0.00 | 0.00 | 0.00 | 1 | 1014.0 |
| 20260504191720 | 56 | 68 | 1.0 | 4.0 | 0.00 | 0.00 | 0.00 | 1 | 1014.0 |
| 20260504191214 | 56 | 117 | 0.0 | 4.0 | 0.00 | 0.00 | 0.00 | 1 | 1014.0 |
| 20260504190708 | 56 | 249 | 1.0 | 6.0 | 0.00 | 0.00 | 0.00 | 1 | 1014.0 |
| 20260504190428 | 56 | 267 | 1.0 | 6.0 | 0.00 | 0.00 | 0.00 | 1 | 1014.0 |
| 20260504185658 | 56 | 17 | 1.0 | 6.0 | 0.00 | 0.00 | 0.00 | 1 | 1014.0 |
| 20260504185416 | 56 | 78 | 0.0 | 6.0 | 0.00 | 0.00 | 0.00 | 1 | 1013.9 |
| 20260504184646 | 56 | 329 | 0.0 | 3.0 | 0.00 | 0.00 | 0.00 | 1 | 1013.9 |
| 20260504184139 | 56 | 39 | 1.0 | 5.0 | 0.00 | 0.00 | 0.00 | 1 | 1013.9 |
| 20260504183903 | 56 | 314 | 1.0 | 5.0 | 0.00 | 0.00 | 0.00 | 1 | 1013.9 |
| 20260504183218 | 57 | 270 | 1.0 | 5.0 | 0.00 | 0.00 | 0.00 | 1 | 1013.9 |
| 20260504182113 | 57 | 107 | 0.0 | 3.0 | 0.00 | 0.00 | 0.00 | 1 | 1013.8 |
| 20260504181610 | 57 | 233 | 0.0 | 2.0 | 0.00 | 0.00 | 0.00 | 1 | 1013.8 |
| 20260504181103 | 57 | 11 | 1.0 | 6.0 | 0.00 | 0.00 | 0.00 | 1 | 1013.7 |
| 20260504180605 | 57 | 328 | 1.0 | 6.0 | 0.00 | 0.00 | 0.00 | 1 | 1013.7 |
| 20260504180100 | 57 | 17 | 1.0 | 8.0 | 0.00 | 0.00 | 0.00 | 1 | 1013.7 |
| 20260504175544 | 57 | 17 | 2.0 | 8.0 | 0.00 | 0.00 | 0.00 | 1 | 1013.8 |
| 20260504175038 | 58 | 115 | 1.0 | 6.0 | 0.00 | 0.00 | 0.00 | 1 | 1013.8 |
| 20260504174801 | 58 | 359 | 1.0 | 5.0 | 0.00 | 0.00 | 0.00 | 1 | 1013.8 |
| 20260504174033 | 58 | 236 | 1.0 | 5.0 | 0.00 | 0.00 | 0.00 | 1 | 1013.8 |
| 20260504173534 | 58 | 241 | 1.0 | 4.0 | 0.00 | 0.00 | 0.00 | 1 | 1013.8 |
| 20260504173033 | 59 | 55 | 1.0 | 4.0 | 0.00 | 0.00 | 0.00 | 1 | 1013.7 |
| 20260504172533 | 59 | 69 | 1.0 | 8.0 | 0.00 | 0.00 | 0.00 | 1 | 1013.7 |
| 20260504172033 | 59 | 158 | 1.0 | 8.0 | 0.00 | 0.00 | 0.00 | 1 | 1013.7 |
| 20260504172024 | 59 | 102 | 1.0 | 7.0 | 0.00 | 0.00 | 0.00 | 1 | 1013.7 |
| 20260504171035 | 59 | 134 | 1.0 | 7.0 | 0.00 | 0.00 | 0.00 | 1 | 1013.8 |
| 20260504170533 | 60 | 264 | 1.0 | 5.0 | 0.00 | 0.00 | 0.00 | 1 | 1013.7 |
| 20260504151007 | 62 | 59 | 1.0 | 4.0 | 0.00 | 0.00 | 0.00 | 1 | 1013.3 |
| 20260504150502 | 63 | 72 | 1.0 | 5.0 | 0.00 | 0.00 | 0.00 | 1 | 1013.3 |
| 20260504141006 | 64 | 52 | 1.0 | 7.0 | 0.00 | 0.00 | 0.00 | 1 | 1013.6 |
| 20260504140504 | 64 | 13 | 2.0 | 7.0 | 0.00 | 0.00 | 0.00 | 1 | 1013.6 |